Weather History for Huron, SD

Change the Weather History Date:

Wednesday, August 14, 2013

  Actual Average Record
Temperature  
Mean Temperature 65 °F 72 °F  
Max Temperature 74 °F 85 °F 102 °F (1935)
Min Temperature 55 °F 60 °F 42 °F (1979)
Degree Days  
Heating Degree Days 0 0  
Month to date heating degree days 0 0  
Since 1 June heating degree days 87 59  
Since 1 July heating degree days 21 8  
Cooling Degree Days 0 8  
Month to date cooling degree days 41 118  
Year to date cooling degree days 469 561  
Since 1 June cooling degree days 431 528  
Growing Degree Days 14 (Base 50)    
Moisture  
Dew Point 56 °F    
Average Humidity 75    
Maximum Humidity 96    
Minimum Humidity 55    
Precipitation  
Precipitation 0.00 in 0.07 in 1.88 in (2008)
Month to date precipitation 1.20 1.24  
Year to date precipitation 17.18 16.07  
Snow  
Snow 0.00 in 0.00 in 0.00 in ()
Month to date snowfall 0.0 0.0  
Since 1 June snowfall 0.0 0.0  
Since 1 July snowfall 0.0 0.0  
Snow Depth 0.00 in    
Sea Level Pressure  
Sea Level Pressure 30.13 in    
Wind  
Wind Speed 5 mph (SSE)    
Max Wind Speed 13 mph    
Max Gust Speed 16 mph    
Visibility 10 miles    
Events      
T = Trace of Precipitation, MM = Missing Value Source: NWS Daily Summary

Daily Weather History Graph

Daily Weather History Graph

Search for Another Location

Airport:

Trip Planner

Search our weather history database for the weather conditions in past years. The results will help you decide how hot, cold, wet, or windy it might be!

Date:

Astronomy

Aug. 14, 2013 Rise Set
Actual Time 6:35 AM CDT 8:39 PM CDT
Civil Twilight 6:03 AM CDT 9:10 PM CDT
Nautical Twilight 5:24 AM CDT 9:49 PM CDT
Astronomical Twilight 4:41 AM CDT 10:31 PM CDT
Moon 2:55 PM CDT (8/14) No Moon Set
Length of Visible Light 15h 07m
Length of Day
14h 03m
First Quarter, 53% of the Moon is Illuminated
Aug 14
First Quarter
Aug 20
Full
Aug 28
Last Quarter
Sep 5
New
Sep 12
First Quarter

Hourly Weather History & Observations

Time (CDT) Temp. Dew Point Humidity Pressure Visibility Wind Dir Wind Speed Gust Speed Precip Events Conditions
12:55 AM 59.0 °F 52.0 °F 78% 30.16 in 10.0 mi SSE 4.6 mph - N/A   Clear
1:55 AM 57.9 °F 52.0 °F 81% 30.16 in 10.0 mi SE 3.5 mph - N/A   Clear
2:55 AM 57.0 °F 52.0 °F 83% 30.15 in 10.0 mi SE 3.5 mph - N/A   Clear
3:55 AM 55.0 °F 53.1 °F 93% 30.15 in 10.0 mi Calm Calm - N/A   Mostly Cloudy
4:55 AM 55.0 °F 52.0 °F 89% 30.14 in 10.0 mi SE 4.6 mph - N/A   Partly Cloudy
5:55 AM 55.0 °F 52.0 °F 89% 30.15 in 10.0 mi SSE 4.6 mph - N/A   Scattered Clouds
6:55 AM 55.9 °F 53.1 °F 90% 30.15 in 10.0 mi SE 5.8 mph - N/A   Clear
7:55 AM 57.9 °F 54.0 °F 87% 30.16 in 10.0 mi SSE 4.6 mph - N/A   Partly Cloudy
8:55 AM 63.0 °F 55.0 °F 75% 30.16 in 10.0 mi South 3.5 mph - N/A   Scattered Clouds
9:55 AM 66.0 °F 55.0 °F 68% 30.15 in 10.0 mi SSE 5.8 mph - N/A   Clear
10:55 AM 66.9 °F 55.9 °F 68% 30.15 in 10.0 mi South 5.8 mph - N/A   Clear
11:55 AM 69.1 °F 55.9 °F 63% 30.15 in 10.0 mi South 4.6 mph - N/A   Clear
12:55 PM 70.0 °F 57.9 °F 65% 30.13 in 10.0 mi South 6.9 mph - N/A   Partly Cloudy
1:55 PM 72.0 °F 60.1 °F 66% 30.12 in 10.0 mi SSE 10.4 mph - N/A   Scattered Clouds
2:55 PM 72.0 °F 60.1 °F 66% 30.12 in 10.0 mi South 6.9 mph - N/A   Scattered Clouds
3:55 PM 72.0 °F 59.0 °F 64% 30.11 in 10.0 mi SSE 5.8 mph 16.1 mph N/A   Partly Cloudy
4:55 PM 72.0 °F 60.1 °F 66% 30.10 in 10.0 mi South 9.2 mph - N/A   Scattered Clouds
5:55 PM 70.0 °F 57.9 °F 65% 30.10 in 10.0 mi SSE 9.2 mph - N/A   Scattered Clouds
6:55 PM 70.0 °F 57.9 °F 65% 30.09 in 10.0 mi South 6.9 mph 16.1 mph N/A   Clear
7:55 PM 68.0 °F 59.0 °F 73% 30.08 in 10.0 mi South 5.8 mph - N/A   Clear
8:55 PM 64.9 °F 60.1 °F 84% 30.07 in 10.0 mi SSE 3.5 mph - N/A   Clear
9:55 PM 63.0 °F 59.0 °F 87% 30.08 in 10.0 mi SSE 5.8 mph - N/A   Clear
10:55 PM 62.1 °F 59.0 °F 90% 30.09 in 10.0 mi South 5.8 mph - N/A   Clear
11:55 PM 60.1 °F 59.0 °F 96% 30.11 in 9.0 mi SSE 4.6 mph - N/A   Clear